Tucson, AZ

5:20 AM MST on October 20, 2019 (GMT -0700)
Tucson International

Weather History for KTUS - August, 2019

Change the Weather History Date:

Thursday, August 1, 2019

  Actual Average Record
Temperature  
Mean Temperature 87 °F 86 °F  
Max Temperature 99 °F 98 °F 112 °F (1993)
Min Temperature 74 °F 74 °F 64 °F (1935)
Degree Days  
Heating Degree Days 0 0  
Month to date heating degree days 0 0  
Since 1 June heating degree days 0 0  
Since 1 July heating degree days 0 0  
Cooling Degree Days 22 21  
Month to date cooling degree days 22 21  
Year to date cooling degree days 1799 1800  
Since 1 June cooling degree days 1427 1298  
Growing Degree Days 36 (Base 50)    
Moisture  
Dew Point 64 °F    
Average Humidity 49    
Maximum Humidity 79    
Minimum Humidity 18    
Precipitation  
Precipitation 0.01 in 0.09 in 2.88 in (1935)
Month to date precipitation 0.01 0.09  
Year to date precipitation 6.11 5.61  
Sea Level Pressure  
Sea Level Pressure 29.90 in    
Wind  
Wind Speed 8 mph (SSE)    
Max Wind Speed 25 mph    
Max Gust Speed 33 mph    
Visibility 10 miles    
Events Rain , Thunderstorm    
T = Trace of Precipitation, MM = Missing Value Source: NWS Daily Summary

Daily Weather History Graph

Daily Weather History Graph

Search for Another Location

Airport or City:

Astronomy

Aug. 01, 2019 Rise Set
Actual Time 5:38 AM MST 7:21 PM MST
Civil Twilight 5:12 AM MST 7:47 PM MST
Nautical Twilight 4:39 AM MST 8:19 PM MST
Astronomical Twilight 4:06 AM MST 8:53 PM MST
Moon 6:08 AM MST (8/1) 8:12 PM MST (8/1)
Length of Visible Light 14h 35m
Length of Day
13h 42m
New Moon, 1% of the Moon is Illuminated
Aug 1
New Moon
Aug 7
First Quarter
Aug 15
Full
Aug 23
Last Quarter
Aug 30
New

Hourly Weather History & Observations

Time (MST) Temp. Heat Index Dew Point Humidity Pressure Visibility Wind Dir Wind Speed Gust Speed Precip Events Conditions
12:53 AM 78.1 °F - 69.1 °F 74% 29.91 in 10.0 mi South 3.5 mph - N/A   Clear
1:53 AM 77.0 °F - 70.0 °F 79% 29.91 in 10.0 mi SE 5.8 mph - N/A   Scattered Clouds
2:53 AM 77.0 °F - 69.1 °F 76% 29.93 in 10.0 mi SE 6.9 mph - N/A   Mostly Cloudy
3:53 AM 77.0 °F - 66.9 °F 71% 29.92 in 10.0 mi ESE 6.9 mph - N/A   Clear
4:53 AM 75.9 °F - 68.0 °F 76% 29.92 in 10.0 mi SSE 5.8 mph - N/A   Clear
5:53 AM 75.0 °F - 66.9 °F 76% 29.94 in 10.0 mi SE 9.2 mph - N/A   Clear
6:53 AM 77.0 °F - 68.0 °F 74% 29.96 in 10.0 mi SE 8.1 mph - N/A   Clear
7:53 AM 82.0 °F 84.5 °F 66.9 °F 60% 29.96 in 10.0 mi SE 8.1 mph - N/A   Clear
8:53 AM 84.9 °F 87.1 °F 66.0 °F 53% 29.96 in 10.0 mi North - - N/A   Clear
9:53 AM 88.0 °F 89.6 °F 64.9 °F 46% 29.95 in 10.0 mi Variable 3.5 mph - N/A   Clear
10:53 AM 90.0 °F 90.6 °F 63.0 °F 40% 29.94 in 10.0 mi SE 3.5 mph - N/A   Clear
11:53 AM 93.9 °F 94.0 °F 61.0 °F 33% 29.92 in 10.0 mi NNW 4.6 mph - N/A   Clear
12:53 PM 95.0 °F 95.2 °F 61.0 °F 32% 29.89 in 10.0 mi East 4.6 mph - N/A   Partly Cloudy
2:53 PM 98.1 °F 97.7 °F 59.0 °F 27% 29.84 in 10.0 mi WNW 5.8 mph - N/A   Clear
3:53 PM 97.0 °F 96.1 °F 57.9 °F 27% 29.82 in 10.0 mi SW 9.2 mph - N/A   Clear
4:53 PM 97.0 °F 96.1 °F 57.9 °F 27% 29.81 in 10.0 mi WSW 10.4 mph - N/A   Partly Cloudy
5:53 PM 97.0 °F 96.5 °F 59.0 °F 28% 29.80 in 10.0 mi WSW 3.5 mph - N/A   Clear
6:53 PM 97.0 °F 96.5 °F 59.0 °F 28% 29.81 in 10.0 mi WNW 9.2 mph - N/A   Clear
7:00 PM 97.0 °F 96.5 °F 59.0 °F 28% 29.97 in 10.0 mi NNW 5.8 mph - N/A Thunderstorm Clear
7:42 PM 96.1 °F 96.0 °F 60.1 °F 30% 29.99 in 10.0 mi Variable 3.5 mph - N/A Thunderstorm Thunderstorm
7:53 PM 88.0 °F 88.4 °F 62.1 °F 42% 29.85 in 10.0 mi SE 25.3 mph 32.2 mph 0.00 in Rain , Thunderstorm Thunderstorms and Rain
8:53 PM 84.9 °F 88.8 °F 69.1 °F 59% 29.86 in 10.0 mi ESE 4.6 mph - 0.01 in Rain , Thunderstorm Thunderstorms and Rain
9:53 PM 84.9 °F 87.6 °F 66.9 °F 55% 29.86 in 10.0 mi SSW 9.2 mph - 0.00 in Rain , Thunderstorm Thunderstorms and Rain
10:18 PM 84.9 °F 87.1 °F 66.0 °F 53% 30.01 in 10.0 mi SSW 8.1 mph - 0.00 in Rain , Thunderstorm Thunderstorms and Rain
10:53 PM 84.0 °F 86.5 °F 66.9 °F 56% 29.86 in 10.0 mi SSE 8.1 mph - 0.00 in Rain Rain
11:53 PM 84.0 °F 86.3 °F 66.0 °F 55% 29.84 in 10.0 mi SSE 5.8 mph - 0.00 in   Clear